Regional Weather Roundup
Issued by NWS Grand Forks, ND

Home | Current Version | Previous Version | Graphics & Text | Print | Product List | Glossary On
Versions: 1 2 3 4 5 6 7 8 9 10 11 12 13 14 15 16 17 18 19 20 21 22 23 24 25 26 27 28 29 30 31 32 33 34 35 36 37 38 39 40 41 42 43 44 45 46 47 48 49 50
000
ASUS43 KFGF 251210
RWRFGF
PRAIRIE TO PINES  WEATHER ROUNDUP
NATIONAL WEATHER SERVICE EASTERN NORTH DAKOTA/GRAND FORKS ND
700 AM CDT SUN SEP 25 2016

 **SATELLITE DATA USED TO AUGMENT SKY COVER AT AUTOMATED STATIONS**
 *****  WEATHER ACROSS EASTERN NORTH DAKOTA  *****

CITY           SKY/WX    TMP DP  RH WIND       PRES   REMARKS
GRAND FORKS    PTCLDY    53  49  86 S12       29.69F
6HR MIN TEMP:  53; 6HR MAX TEMP:  69;

GRAND FRKS AFB CLEAR     52  49  89 SW9       29.69F
DEVILS LAKE    LGT RAIN  55  54  96 NW18      29.71R
6HR MIN TEMP:  54; 6HR MAX TEMP:  61; 6HR PCP: TRACE;

FARGO          CLOUDY    55  48  77 S13       29.76F
WAHPETON ARPT  PTSUNNY   52  46  82 S10       29.79F
$$

 ***** WEATHER ACROSS CENTRAL AND WESTERN NORTH DAKOTA  *****

CITY           SKY/WX    TMP DP  RH WIND       PRES   REMARKS
BISMARCK       LGT RAIN  52  48  86 NW29G38   29.93R
6HR MIN TEMP:  51; 6HR MAX TEMP:  55; 6HR PCP:  0.06;

MINOT          CLOUDY    52  49  89 W24G33    29.91R
6HR MIN TEMP:  51; 6HR MAX TEMP:  56; 6HR PCP:  0.08;

JAMESTOWN      CLOUDY    52  50  93 W13G21    29.76R
6HR MIN TEMP:  46; 6HR MAX TEMP:  57; 6HR PCP: TRACE;

MINOT AFB      LGT RAIN  51  49  93 NW21G28   29.90R
GARRISON         N/A     50  49  96 NW26G36   29.94R
WILLISTON      CLEAR     46  39  76 NW18      30.11R
6HR MIN TEMP:  46; 6HR MAX TEMP:  52; 6HR PCP:  0.21;

DICKINSON      PTCLDY    44  40  85 NW21      30.07R
6HR MIN TEMP:  44; 6HR MAX TEMP:  48; 6HR PCP:  0.09;

HETTINGER      CLEAR     45  39  79 NW22G29   30.12R
6HR MIN TEMP:  45; 6HR MAX TEMP:  49; 6HR PCP:  0.01;

$$

 *****  OTHER AIRPORT OBSERVATIONS IN OUR AREA  *****

CITY           SKY/WX    TMP DP  RH WIND       PRES   REMARKS
WALHALLA       FAIR      55  54  94 N5        29.66S
GRAFTON AIRPOR FAIR      54  54 100 S9        29.69S
VALLEY CITY AR FAIR      48  48 100 SW12      29.77S
CANDO          LGT RAIN  52  52 100 NW23G29   29.77R
CAVALIER APRT  FAIR      54  54 100 SW5       29.65F
GWINNER        CLOUDY    54  52  94 SW13      29.79R
SHEYENNE NWR     N/A     52  49  88 SW13      29.95S
ROLLA          CLOUDY    48  48 100 NW28G37   29.76R FOG
 ***** THE ABOVE OBSERVATIONS ARE NON NWS ARE NOT QUALITY
       CONTROLLED AND MAY MIS-REPORT RAIN FOR SNOW...
$$

  *****  WEATHER ACROSS NORTHERN MINNESOTA  *****

CITY           SKY/WX    TMP DP  RH WIND       PRES   REMARKS
FLAG ISLAND    MOCLDY    63  61  94 SE12      29.69F
WARROAD        MOCLDY    63  61  94 S8        29.71F
ROSEAU         CLEAR     64  57  77 S8        29.69F
HALLOCK        CLEAR     59  55  88 S12       29.66F
THF RVR FALLS  PTCLDY    56  51  84 SW16G24   29.73S
6HR MIN TEMP:  56; 6HR MAX TEMP:  67;

BAUDETTE       LGT RAIN  63  62  97 SE9       29.73F
6HR MIN TEMP:  63; 6HR MAX TEMP:  65; 6HR PCP:  0.07;

WASKISH        LGT RAIN  64  63  94 SE5       29.75S
CROOKSTON      CLEAR     54  52  94 S10       29.73S
STEPHEN NDAWN    N/A     55  52  88 S8          N/A
GREENBUSH NDAW   N/A     61  59  94 S12         N/A
$$
  *****  WEATHER ACROSS CENTRAL AND WEST MINNESOTA  *****

CITY           SKY/WX    TMP DP  RH WIND       PRES   REMARKS
FOSSTON        PTCLDY    55  52  88 S16       29.75F
BEMIDJI        PTCLDY    64  63  98 S7        29.75F
PARK RAPIDS    CLOUDY    62  56  80 SW9       29.78F
6HR MIN TEMP:  62; 6HR MAX TEMP:  67; 6HR PCP:  0.05;

ELBOW LAKE     FAIR      51  48  89 S10       29.83F
WADENA         NOT AVBL
DETROIT LAKES  CLEAR     54  48  82 SW12      29.79F
MOORHEAD       CLOUDY    54  48  82 S9        29.77F
FERGUS FALLS   CLEAR     54  48  82 S12       29.83S
MORRIS MN      CLOUDY    52  48  87 S8        29.84F
STAPLES        CLOUDY    57  52  82 SW5       29.82R
$$
  *****  WEATHER ELSEWHERE ACROSS MINNESOTA  *****

CITY           SKY/WX    TMP DP  RH WIND       PRES   REMARKS
DULUTH         LGT RAIN  60  60 100 SE12      29.88F FOG
6HR MIN TEMP:  60; 6HR MAX TEMP:  61; 6HR PCP:  0.14;

INTRNTL FALLS  LGT RAIN  62  61  96 SE8       29.77F
6HR MIN TEMP:  62; 6HR MAX TEMP:  64; 6HR PCP:  0.25;

ELY            LGT RAIN  59  57  94 SE12      29.87F
CLOQUET        DRIZZLE   63  61  94 SE7       29.86F
WHEATON        NOT AVBL
BRAINERD       CLOUDY    65  64  97 S10       29.81F
6HR MIN TEMP:  64; 6HR MAX TEMP:  66; 6HR PCP:  0.24;

HIBBING        LGT RAIN  61  60  97 SE10      29.82F FOG
6HR MIN TEMP:  59; 6HR MAX TEMP:  61; 6HR PCP:  0.20;

ALEXANDRIA     PTCLDY    56  49  77 SW13      29.85F
6HR MIN TEMP:  56; 6HR MAX TEMP:  68; 6HR PCP: TRACE;

SAINT CLOUD    LGT RAIN  66  66 100 SW10      29.85S
6HR MIN TEMP:  66; 6HR MAX TEMP:  67; 6HR PCP:  0.27;

MINNEAPOLIS    LGT RAIN  69  66  90 S14       29.87F FOG
6HR MIN TEMP:  68; 6HR MAX TEMP:  69; 6HR PCP:  0.03;

$$

  *****  WEATHER ACROSS SOUTH DAKOTA  *****

CITY           SKY/WX    TMP DP  RH WIND       PRES   REMARKS
SIOUX FALLS    PTCLDY    53  46  77 SW6       29.98S
6HR MIN TEMP:  53; 6HR MAX TEMP:  69;

BROOKINGS      CLEAR     51  46  83 SW15      29.93S
WATERTOWN      CLOUDY    55  50  83 SW18G29   29.87S
6HR MIN TEMP:  51; 6HR MAX TEMP:  55;

HURON          CLOUDY    57  47  69 W22G31    29.93S
6HR MIN TEMP:  53; 6HR MAX TEMP:  58;

SISSETON         N/A     57  51  80 W20G25    29.79F
ABERDEEN       MOCLDY    56  50  80 W21G31    29.84R
6HR MIN TEMP:  51; 6HR MAX TEMP:  58;

MITCHELL       CLOUDY    59  47  64 W13       29.99R
PIERRE         CLOUDY    57  44  62 NW29G40   30.03R
6HR MIN TEMP:  55; 6HR MAX TEMP:  58;

MOBRIDGE       CLOUDY    54  48  80 NW23G30   29.94R
RAPID CITY     CLEAR     50  35  56 NW24G38   30.23R
6HR MIN TEMP:  50; 6HR MAX TEMP:  55; 6HR PCP: TRACE;

$$

  *****  SOME WEATHER IN NEARBY STATES *****

CITY           SKY/WX    TMP DP  RH WIND       PRES   REMARKS
GLASGOW MT     CLEAR     38  33  82 W9        30.26R
6HR MIN TEMP:  38; 6HR MAX TEMP:  48;

GREAT FALLS MT CLEAR     43  35  73 SW12      30.35S
6HR MIN TEMP:  39; 6HR MAX TEMP:  43;

CHEYENNE WY    CLEAR     39  31  72 NW6       30.42R
6HR MIN TEMP:  39; 6HR MAX TEMP:  45;

SCOTTSBLUFF NE CLEAR     40  37  89 NW6       30.36R
6HR MIN TEMP:  40; 6HR MAX TEMP:  47;

OMAHA NE       CLOUDY    59  50  72 NW12      30.07R
6HR MIN TEMP:  59; 6HR MAX TEMP:  70; 6HR PCP:  0.10;

DES MOINES IA  CLOUDY    69  67  93 S6        29.97S
6HR MIN TEMP:  69; 6HR MAX TEMP:  71; 6HR PCP:  0.16;

DAVENPORT IA   PTCLDY    68  65  90 SE9       30.00F
6HR MIN TEMP:  66; 6HR MAX TEMP:  68;

CHICAGO IL     PTCLDY    63  58  83 SE10      30.09S
6HR MIN TEMP:  63; 6HR MAX TEMP:  69;

EAU CLAIRE WI  CLOUDY    65  62  90 SE8       29.93F
6HR MIN TEMP:  63; 6HR MAX TEMP:  65;

LA CROSSE WI   CLOUDY    68  65  90 S8        29.93F
6HR MIN TEMP:  66; 6HR MAX TEMP:  69; 6HR PCP: TRACE;

$$

  *****  SOME NATIONAL WEATHER *****

CITY           SKY/WX    TMP DP  RH WIND       PRES   REMARKS
LA GUARDIA NY  SUNNY     60  42  51 N5        30.19R
6HR MIN TEMP:  58; 6HR MAX TEMP:  62;

RALEIGH NC     CLOUDY    71  67  87 NE7       30.16R
6HR MIN TEMP:  70; 6HR MAX TEMP:  74;

ATLANTA GA     PTCLDY    70  66  87 CALM      30.10R
6HR MIN TEMP:  70; 6HR MAX TEMP:  76;

NEW ORLEANS LA PTCLDY    77  73  87 CALM      30.04R
6HR MIN TEMP:  76; 6HR MAX TEMP:  79;

OKLAHOMA CITY  MOCLDY    68  67  96 NW6       30.08S
6HR MIN TEMP:  68; 6HR MAX TEMP:  70; 6HR PCP:  0.40;

ALBUQUERQUE NM PTCLDY    52  34  50 N10       30.28R
6HR MIN TEMP:  51; 6HR MAX TEMP:  59;

SALT LAKE CITY CLEAR     47  40  76 SE7       30.42R
6HR MIN TEMP:  46; 6HR MAX TEMP:  51;

LOS ANGELES CA CLEAR     67  46  47 NE5       29.97S
6HR MIN TEMP:  65; 6HR MAX TEMP:  72;

BOISE ID       CLEAR    C1F1C2F2C3F3C4F4C5F5C6F6C7F7C8F8C9F9CaFaCbFbCcFcCd!



USA.gov is the U.S. government's official web portal to all federal, state and local government web resources and services.